Location: Malanoce
(44.2500°N, 7.4667°E)
Time: 21:08:37
(UTC+00:00)

Cosmos 2151 Rocket - Pass Details

Date: 17 November 2025
Orbit: 612 x 636 km, 82.5° (Epoch: 11 December)

Event Time Altitude Azimuth Distance (km) Brightness Sun altitude
Rises 17:33:44 0° 180° (S) 2,912 7.2 -16.5°
Reaches altitude 10° 17:35:58 10° 178° (S) 2,012 6.3 -16.9°
Maximum altitude 17:40:24 68° 96° (E) 686 3.5 -17.7°
Drops below altitude 10° 17:44:53 10° 13° (NNE) 2,033 6.0 -18.5°
Enters shadow 17:45:30 - 13° (NNE) 2,280 6.2 -18.6°
